[[{"header":{"parameterUnit":"m.s-1","parameterCategory":1,"la1":30.2991,"la2":30.254,"lo1":-89.0895,"lo2":-89.0444,"dy":0.0017,"dx":0.0017,"nx":28,"ny":28,"refTime":"2025-07-13T03:00:00:Z","depth":0,"parameterNumber":2,"parameterNumberName":"U-component_of_WINDS"},"data":[0,0,0,0,0,0,0,0,0,0,0,0,0,0,0,0,0,0,0,0,0,0,0,0,0,0,0,0,0,0,0,0,0,0,0,0,0,0,0,0,0,0,0,0,0,0,0,0,0,0,0,0,0,0,0,0,0,0,2.0852,2.0854,0,2.1012,2.1014,2.1016,2.1052,2.1051,2.105,2.1049,2.1217,2.1223,2.1228,0,0,0,0,0,0,0,0,0,0,0,0,0,2.058,2.0585,2.0852,2.0854,2.0856,2.1012,2.1014,2.1016,2.1053,2.1051,2.105,2.1049,2.1215,2.1222,2.1229,0,0,0,0,0,0,0,0,0,0,0,0,0,2.0715,2.0586,2.0851,2.0893,2.0898,2.1011,2.1014,2.1017,2.1053,2.1051,2.105,2.1048,2.1213,2.1221,2.1229,2.1315,0,0,2.1255,2.1258,0,0,0,0,0,0,0,0,2.0707,2.0725,2.0885,2.089,2.0896,2.101,2.098,2.1117,2.1053,2.0994,2.1049,2.1047,2.115,2.1163,2.1197,2.1322,2.133,2.1256,2.1261,2.1264,2.1266,0,0,0,0,0,0,0,2.0698,2.0718,2.0915,2.0887,2.0894,2.0904,2.0921,2.1006,2.108,2.0999,2.1002,2.1021,2.1153,2.1189,2.1202,2.1332,2.1255,2.1263,2.1268,2.1271,2.1534,2.1536,0,0,0,0,0,0,2.0681,2.071,2.091,2.092,2.0795,2.091,2.093,2.0976,2.1079,2.1093,2.1022,2.1022,2.1176,2.1192,2.1208,2.1313,2.1264,2.1272,2.1277,2.1532,2.1534,2.1536,0,0,0,0,0,0,2.0675,2.0698,2.0904,2.0816,2.0843,2.0917,2.0968,2.098,2.1016,2.1096,2.111,2.1045,2.1175,2.1196,2.1287,2.1319,2.1276,2.1283,2.153,2.1533,2.1535,2.1525,0,0,0,0,0,0,2.0667,2.0696,2.0728,2.0816,2.0847,2.098,2.097,2.0984,2.103,2.1031,2.1122,2.1135,2.1176,2.1275,2.1295,2.133,2.129,2.1527,2.1531,2.1534,2.1522,2.1527,2.1531,0,0,0,0,0,2.0657,2.072,2.073,2.0754,2.0889,2.0981,2.0999,2.1044,2.1032,2.1066,2.1117,2.1132,2.1312,2.1284,2.1307,2.1345,2.1525,2.153,2.1534,2.1521,2.1526,2.1531,0,0,0,0,0,0,2.0635,2.0732,2.0744,2.0838,2.0901,2.0987,2.1031,2.1048,2.1117,2.1115,2.1169,2.1189,2.1276,2.132,2.1286,2.1432,2.1419,2.1428,2.14,2.1406,2.141,2.1397,2.1297,0,0,0,0,0,2.0641,2.0707,2.0789,2.0863,2.0894,2.0957,2.0999,2.1027,2.1095,2.1123,2.1181,2.1247,2.1319,2.1365,2.1436,2.1529,2.1549,2.1567,2.1571,2.1574,2.1581,2.1633,2.1641,2.1551,2.1551,2.1551,0,0,2.0654,2.0715,2.0754,2.086,2.0913,2.098,2.0979,2.1051,2.1102,2.1134,2.1223,2.1268,2.1346,2.1438,2.1481,2.1477,2.161,2.158,2.1581,2.1587,2.1638,2.1647,2.1654,2.1554,2.1554,2.1553,0,0,2.0712,2.0765,2.0833,2.0885,2.0963,2.1005,2.1021,2.1105,2.1135,2.1225,2.125,2.1312,2.1434,2.1488,2.1532,2.1609,2.1625,2.1631,2.1652,2.1702,2.1709,2.1715,2.1742,2.1751,2.1638,2.1638,2.1638,0,2.0719,2.0821,2.0865,2.0935,2.0981,2.1012,2.1081,2.1129,2.1228,2.1259,2.1252,2.1405,2.146,2.1565,2.1583,2.1618,2.1638,2.162,2.1704,2.1711,2.1718,2.1744,2.1753,2.1638,2.1638,2.1638,2.1638,0,2.0824,2.0894,2.0939,2.1031,2.1082,2.1151,2.1207,2.1254,2.1277,2.1319,2.141,2.1477,2.156,2.1588,2.1613,2.1696,2.169,2.1693,2.168,2.1725,2.1751,2.1761,2.1638,2.1638,2.1638,2.1638,0,0,2.0873,2.0988,2.1004,2.1046,2.1134,2.119,2.126,2.134,2.1379,2.1446,2.1506,2.1608,2.161,2.166,2.1691,2.1735,2.179,2.1732,2.1735,2.174,2.1884,2.1881,2.1891,2.1801,2.1804,2.1805,2.1877,0,2.0941,2.1066,2.1108,2.1213,2.1277,2.1308,2.1369,2.143,2.1471,2.1533,2.1579,2.165,2.1649,2.1678,2.1723,2.1774,2.182,2.1769,2.1858,2.186,2.1836,2.1905,2.1902,2.1967,2.1888,2.1889,2.1891,0,2.1037,2.1103,2.1213,2.1293,2.1322,2.1376,2.1452,2.1511,2.1581,2.1608,2.1662,2.1689,2.1764,2.1747,2.1851,2.1816,2.1855,2.1885,2.1889,2.1898,2.1878,2.1915,2.1989,2.1998,2.1907,2.1906,2.1904,0,2.106,2.1177,2.1258,2.1293,2.1388,2.1425,2.1466,2.1535,2.158,2.1647,2.1677,2.1753,2.1794,2.1852,2.1899,2.1883,2.1999,2.1986,2.2023,2.2022,2.2046,2.2043,2.2125,2.2072,2.2072,2.2072,2.2072,0,2.1131,2.1197,2.1269,2.1318,2.1393,2.1441,2.1514,2.1557,2.1618,2.1676,2.1708,2.1763,2.1822,2.1885,2.1923,2.2002,2.2021,2.2045,2.2054,2.2041,2.2038,2.2067,2.2063,2.2074,2.2074,2.2073,2.2073,0,2.1169,2.122,2.131,2.1392,2.1414,2.1465,2.1536,2.1585,2.1627,2.1701,2.1721,2.1788,2.1863,2.1916,2.2013,2.2038,2.2123,2.2133,2.2099,2.2103,2.2137,2.2132,2.2239,2.2255,2.2192,2.2193,2.2193,0,2.1211,2.1262,2.1349,2.1389,2.143,2.1496,2.1542,2.1592,2.1638,2.1721,2.176,2.1837,2.1901,2.202,2.2077,2.2151,2.2162,2.2195,2.2174,2.2159,2.2161,2.2157,2.2162,2.2197,2.2198,2.2198,2.2198,0,2.1278,2.13,2.1365,2.1438,2.1491,2.1551,2.1612,2.1644,2.1704,2.1755,2.1831,2.188,2.1979,2.2054,2.2134,2.2177,2.2198,2.2204,2.2217,2.2204,2.2182,2.2193,2.2106,2.2202,2.2201,2.2201,2.2201,2.2201,2.1319,2.1365,2.1433,2.1503,2.1553,2.1609,2.1659,2.1707,2.1771,2.1853,2.1879,2.1958,2.2026,2.2135,2.2179,2.2242,2.224,2.2258,2.2263,2.2266,2.2265,2.2172,2.2257,2.2257,2.2257,2.2257,2.2257,0,2.1386,2.1431,2.1496,2.1579,2.1634,2.1647,2.1715,2.176,2.1829,2.189,2.1952,2.2039,2.2112,2.2175,2.2251,2.2289,2.23,2.2307,2.2305,2.2314,2.2263,2.2244,2.2297,2.2297,2.2297,2.2297,2.2297,2.2297,2.1428,2.1507,2.1537,2.1641,2.1686,2.1762,2.1799,2.1851,2.19,2.1995,2.2056,2.2096,2.2158,2.2238,2.2306,2.2323,2.2349,2.2353,2.2372,2.2323,2.2318,2.2313,2.2296,2.2359,2.2359,2.2418,2.2418,2.2419]},{"header":{"parameterUnit":"m.s-1","parameterCategory":1,"la1":30.2991,"la2":30.254,"lo1":-89.0895,"lo2":-89.0444,"dy":0.0017,"dx":0.0017,"nx":28,"ny":28,"refTime":"2025-07-13T03:00:00:Z","depth":0,"parameterNumber":3,"parameterNumberName":"V-component_of_WINDS"},"data":[0,0,0,0,0,0,0,0,0,0,0,0,0,0,0,0,0,0,0,0,0,0,0,0,0,0,0,0,0,0,0,0,0,0,0,0,0,0,0,0,0,0,0,0,0,0,0,0,0,0,0,0,0,0,0,0,0,0,3.7388,3.7388,0,3.7332,3.7331,3.7331,3.7318,3.7319,3.7319,3.732,3.7255,3.7253,3.7251,0,0,0,0,0,0,0,0,0,0,0,0,0,3.7477,3.7476,3.7388,3.7388,3.7387,3.7332,3.7331,3.7331,3.7318,3.7319,3.7319,3.732,3.7256,3.7253,3.7251,0,0,0,0,0,0,0,0,0,0,0,0,0,3.7431,3.7475,3.7388,3.7374,3.7373,3.7332,3.7331,3.733,3.7318,3.7319,3.7319,3.732,3.7256,3.7253,3.725,3.7218,0,0,3.724,3.7239,0,0,0,0,0,0,0,0,3.7434,3.7428,3.7377,3.7375,3.7373,3.7333,3.7339,3.7292,3.7318,3.7339,3.732,3.732,3.728,3.7275,3.7263,3.7215,3.7212,3.724,3.7238,3.7237,3.7236,0,0,0,0,0,0,0,3.7437,3.743,3.7366,3.7376,3.7374,3.7368,3.7362,3.733,3.7306,3.7337,3.7336,3.733,3.7279,3.7266,3.7261,3.7211,3.724,3.7237,3.7236,3.7234,3.7131,3.713,0,0,0,0,0,0,3.7444,3.7433,3.7368,3.7364,3.7406,3.7366,3.736,3.7345,3.7307,3.7301,3.7329,3.7329,3.7271,3.7265,3.7259,3.7217,3.7237,3.7234,3.7232,3.7132,3.7131,3.713,0,0,0,0,0,0,3.7446,3.7438,3.737,3.7398,3.7389,3.7364,3.7348,3.7344,3.7331,3.7301,3.7296,3.7321,3.7271,3.7263,3.7228,3.7214,3.7233,3.723,3.7133,3.7131,3.713,3.7133,0,0,0,0,0,0,3.7448,3.7439,3.7428,3.7398,3.7388,3.7343,3.7347,3.7342,3.7326,3.7326,3.7292,3.7286,3.7271,3.7233,3.7225,3.721,3.7227,3.7134,3.7132,3.7131,3.7134,3.7132,3.7131,0,0,0,0,0,3.7452,3.743,3.7428,3.742,3.7375,3.7342,3.7336,3.7321,3.7325,3.7313,3.7293,3.7288,3.7217,3.7229,3.722,3.7204,3.7135,3.7133,3.7131,3.7135,3.7133,3.7131,0,0,0,0,0,0,3.7457,3.7426,3.7423,3.7392,3.737,3.734,3.7324,3.7319,3.7293,3.7293,3.7273,3.7266,3.7231,3.7214,3.7228,3.717,3.7176,3.7172,3.7182,3.718,3.7178,3.7182,3.7225,0,0,0,0,0,3.7456,3.7434,3.7407,3.7382,3.7371,3.735,3.7335,3.7325,3.7301,3.729,3.7269,3.7243,3.7214,3.7196,3.7169,3.7132,3.7123,3.7116,3.7115,3.7113,3.711,3.7086,3.7083,3.7124,3.7124,3.7124,0,0,3.745,3.7431,3.7418,3.7383,3.7365,3.734,3.7342,3.7317,3.7297,3.7286,3.7252,3.7234,3.7204,3.7167,3.715,3.7152,3.7096,3.7111,3.711,3.7107,3.7084,3.708,3.7077,3.7122,3.7123,3.7123,0,0,3.7429,3.7413,3.739,3.7372,3.7345,3.733,3.7324,3.7295,3.7284,3.725,3.724,3.7215,3.7168,3.7146,3.7129,3.7097,3.709,3.7089,3.7079,3.7056,3.7053,3.705,3.7037,3.7032,3.7086,3.7086,3.7086,0,3.7425,3.7391,3.7378,3.7353,3.7336,3.7327,3.7301,3.7283,3.7248,3.7235,3.7239,3.7178,3.7157,3.7114,3.7106,3.7093,3.7084,3.7092,3.7055,3.7052,3.7049,3.7036,3.7031,3.7085,3.7085,3.7086,3.7086,0,3.7387,3.7363,3.7347,3.7315,3.7296,3.7271,3.7252,3.7234,3.7226,3.721,3.7173,3.7148,3.7114,3.7103,3.7094,3.7058,3.706,3.706,3.7065,3.7045,3.7032,3.7027,3.7085,3.7085,3.7085,3.7085,0,0,3.7367,3.7328,3.7322,3.7307,3.7276,3.7256,3.7229,3.7198,3.7182,3.7157,3.7132,3.7092,3.7091,3.7071,3.7059,3.704,3.7014,3.7041,3.704,3.7035,3.697,3.6969,3.6964,3.7009,3.7008,3.7007,3.6972,0,3.7341,3.7295,3.7282,3.7242,3.7218,3.7208,3.7184,3.7161,3.7145,3.712,3.7101,3.7073,3.7075,3.7062,3.7043,3.7021,3.7,3.7024,3.6983,3.6981,3.699,3.6958,3.6958,3.6925,3.6967,3.6966,3.6965,0,3.7304,3.728,3.7239,3.721,3.7199,3.7178,3.7148,3.7125,3.7097,3.7087,3.7065,3.7054,3.7022,3.703,3.6984,3.7001,3.6983,3.6969,3.6967,3.6962,3.6971,3.695,3.6915,3.6909,3.6958,3.6958,3.6959,0,3.7291,3.7249,3.7219,3.7206,3.7171,3.7156,3.7141,3.7114,3.7096,3.7068,3.7055,3.7024,3.7006,3.698,3.696,3.6968,3.6915,3.6922,3.6903,3.6903,3.6891,3.6892,3.6852,3.6882,3.6883,3.6883,3.6883,0,3.7262,3.7237,3.7213,3.7194,3.7164,3.7147,3.7117,3.7101,3.7077,3.7052,3.7041,3.7017,3.6993,3.6965,3.6948,3.6911,3.6904,3.6892,3.6888,3.6892,3.6894,3.6879,3.6881,3.6881,3.6882,3.6882,3.6882,0,3.7243,3.7227,3.7192,3.7163,3.7154,3.7133,3.7106,3.7086,3.707,3.7038,3.703,3.7003,3.697,3.6947,3.6904,3.6893,3.6852,3.6849,3.6862,3.686,3.6841,3.6843,3.6789,3.678,3.6819,3.6818,3.6818,0,3.7225,3.7206,3.7174,3.7158,3.7143,3.7117,3.7099,3.7081,3.7061,3.7028,3.701,3.6977,3.6949,3.6895,3.687,3.6836,3.6831,3.6814,3.6825,3.683,3.6828,3.6829,3.6826,3.6812,3.6812,3.6812,3.6811,0,3.7194,3.7187,3.7162,3.7134,3.7113,3.709,3.7066,3.7052,3.703,3.7008,3.6975,3.6954,3.691,3.6875,3.6839,3.6819,3.681,3.6808,3.6802,3.6805,3.6813,3.6807,3.6856,3.6809,3.6809,3.681,3.681,3.681,3.7174,3.7155,3.713,3.7102,3.7083,3.7061,3.704,3.7021,3.6994,3.6959,3.6949,3.6914,3.6884,3.6834,3.6814,3.6784,3.6785,3.6776,3.6774,3.6771,3.677,3.682,3.6777,3.6777,3.6777,3.6777,3.6777,0,3.7141,3.7124,3.7099,3.7067,3.7044,3.7041,3.7013,3.6994,3.6964,3.6938,3.6911,3.6871,3.6838,3.681,3.6774,3.6755,3.675,3.6746,3.6746,3.6742,3.6772,3.6781,3.6751,3.6751,3.6751,3.6751,3.6751,3.6751,3.7121,3.7089,3.7078,3.7035,3.7018,3.6985,3.6969,3.6948,3.6927,3.6884,3.6857,3.684,3.6812,3.6774,3.6742,3.6734,3.672,3.6717,3.6708,3.6737,3.674,3.6742,3.675,3.6715,3.6715,3.668,3.6679,3.6679]}]]